Location: Newark
(23.1300°N, 73.6109°E)
Time: 17:01:47
(UTC+00:00)

NOAA 18 - Pass Details

Date: 08 July 2020
Orbit: 839 x 862 km, 99.0° (Epoch: 05 August)

Event Time Altitude Azimuth Distance (km) Brightness Sun altitude
Exits shadow 15:07:31 18° 93° (E) 1,975 6.6 -15.4°
Maximum altitude 15:09:07 21° 70° (ENE) 1,856 6.6 -15.7°
Drops below altitude 10° 15:13:05 10° 24° (NNE) 2,490 7.8 -16.4°
Sets 15:16:01 0° 8° (N) 3,426 8.7 -17.0°
